This is the latest recevied weather packets stored in our database for station/object K7DC. If no packets are shown the sender has not sent any weather packets the latest 10 day(s).
| Time | Temp. | Humidity | Pressure | Rain* | Wind** | Luminosity | Snow |
|---|---|---|---|---|---|---|---|
| 1788136154 | 96° F | 32% | 759 mmHg | 0 in | - | 34 W/m² | - |
| 1788135853 | 96° F | 32% | 758.9 mmHg | 0 in | - | 34 W/m² | - |
| 1788135548 | 97° F | 31% | 759 mmHg | 0 in | - | 44 W/m² | - |
| 1788135243 | 97° F | 30% | 759 mmHg | 0 in | - | 113 W/m² | - |
| 1788134941 | 97° F | 31% | 758.8 mmHg | 0 in | - | 82 W/m² | - |
| 1788134636 | 98° F | 30% | 759.1 mmHg | 0 in | - | 154 W/m² | - |
| 1788134334 | 98° F | 31% | 759 mmHg | 0 in | - | 122 W/m² | - |
| 1788134029 | 98° F | 30% | 758.9 mmHg | 0 in | - | 200 W/m² | - |
| 1788133724 | 98° F | 31% | 758.9 mmHg | 0 in | - | 225 W/m² | - |
| 1788133420 | 98° F | 29% | 759.1 mmHg | 0 in | - | 229 W/m² | - |
| 1788133115 | 98° F | 29% | 758.8 mmHg | 0 in | - | 243 W/m² | - |
| 1788132811 | 97° F | 31% | 759.1 mmHg | 0 in | - | 272 W/m² | - |
| 1788132507 | 97° F | 31% | 759 mmHg | 0 in | - | 296 W/m² | - |
| 1788132202 | 97° F | 30% | 758.9 mmHg | 0 in | - | 95 W/m² | - |
| 1788131899 | 98° F | 29% | 759.1 mmHg | 0 in | - | 85 W/m² | - |
| 1788131599 | 99° F | 29% | 759.1 mmHg | 0 in | - | 345 W/m² | - |
| 1788131293 | 99° F | 30% | 759.2 mmHg | 0 in | - | 363 W/m² | - |
| 1788130988 | 98° F | 29% | 759.1 mmHg | 0 in | - | 387 W/m² | - |
| 1788130688 | 98° F | 29% | 759.5 mmHg | 0 in | - | 410 W/m² | - |
| 1788130383 | 98° F | 30% | 759.6 mmHg | 0 in | - | 433 W/m² | - |
| 1788130082 | 99° F | 29% | 759.7 mmHg | 0 in | - | 452 W/m² | - |
| 1788129777 | 99° F | 29% | 759.7 mmHg | 0 in | - | 475 W/m² | - |
| 1788129474 | 99° F | 30% | 759.8 mmHg | 0 in | - | 503 W/m² | - |
| 1788129170 | 99° F | 30% | 759.7 mmHg | 0 in | - | 535 W/m² | - |
| 1788128864 | 99° F | 30% | 759.8 mmHg | 0 in | - | 548 W/m² | - |
* Rain latest hour (hover to see other rain measurements)
** Current wind speed in m/s (hover to see current wind gust speed)